Change the Weather History Date:

Sunday, February 23, 2014

  Actual Average (KRPD) Record (KRPD)
Temperature  
Mean Temperature 5 °F -  
Max Temperature 14 °F 28 °F 44 °F (2002)
Min Temperature -4 °F 12 °F -25 °F (2015)
Degree Days  
Heating Degree Days 60    
Moisture  
Dew Point -1 °F    
Average Humidity 71    
Maximum Humidity 85    
Minimum Humidity 62    
Precipitation  
Precipitation 0.00 in - - ()
Sea Level Pressure  
Sea Level Pressure 30.08 in    
Wind  
Wind Speed 12 mph (West)    
Max Wind Speed 22 mph    
Max Gust Speed 28 mph    
Visibility 10 miles    
Events      
Averages and records for this station are not official NWS values.
T = Trace of Precipitation, MM = Missing Value Source: NWS Daily Summary

Daily Weather History Graph

Daily Weather History Graph

Search for Another Location

Airport or City:

Trip Planner

Search our weather history database for the weather conditions in past years. The results will help you decide how hot, cold, wet, or windy it might be!

Date:

Astronomy

Feb. 23, 2014 Rise Set
Actual Time 6:56 AM CST 5:46 PM CST
Civil Twilight 6:26 AM CST 6:16 PM CST
Nautical Twilight 5:52 AM CST 6:50 PM CST
Astronomical Twilight 5:18 AM CST 7:25 PM CST
Moon 2:04 AM CST (2/23) 11:40 AM CST (2/23)
Length of Visible Light 11h 49m
Length of Day
10h 49m
Last Quarter, 38% of the Moon is Illuminated
Feb 23
Last Quarter
Mar 1
New
Mar 8
First Quarter
Mar 16
Full
Mar 23
Last Quarter

Hourly Weather History & Observations

Time (CST) Temp. Windchill Dew Point Humidity Pressure Visibility Wind Dir Wind Speed Gust Speed Precip Events Conditions
12:15 AM 3.2 °F -12.2 °F -4.0 °F 72% 30.02 in 10.0 mi West 10.4 mph - N/A   Clear
12:35 AM 3.2 °F -13.1 °F -4.0 °F 72% 30.02 in 10.0 mi West 11.5 mph - N/A   Clear
12:55 AM 3.2 °F -13.1 °F -4.0 °F 72% 30.03 in 10.0 mi West 11.5 mph - N/A   Clear
1:15 AM 1.4 °F -16.1 °F -4.0 °F 78% 30.03 in 10.0 mi West 12.7 mph - N/A   Clear
1:35 AM 1.4 °F -16.1 °F -4.0 °F 78% 30.04 in 10.0 mi West 12.7 mph - N/A   Clear
1:55 AM 1.4 °F -16.1 °F -4.0 °F 78% 30.05 in 10.0 mi West 12.7 mph - N/A   Clear
2:15 AM 1.4 °F -13.5 °F -5.8 °F 72% 30.05 in 10.0 mi West 9.2 mph - N/A   Clear
2:35 AM -0.4 °F -15.7 °F -5.8 °F 78% 30.05 in 10.0 mi West 9.2 mph - N/A   Clear
2:55 AM -0.4 °F -14.7 °F -5.8 °F 78% 30.05 in 10.0 mi West 8.1 mph - N/A   Clear
3:15 AM -0.4 °F -15.7 °F -5.8 °F 78% 30.05 in 10.0 mi West 9.2 mph - N/A   Clear
3:35 AM -0.4 °F -15.7 °F -5.8 °F 78% 30.05 in 10.0 mi West 9.2 mph - N/A   Clear
3:55 AM -0.4 °F -14.7 °F -5.8 °F 78% 30.05 in 10.0 mi West 8.1 mph - N/A   Clear
4:15 AM -0.4 °F -14.7 °F -5.8 °F 78% 30.05 in 10.0 mi West 8.1 mph - N/A   Clear
4:35 AM -0.4 °F -13.4 °F -5.8 °F 78% 30.06 in 10.0 mi West 6.9 mph - N/A   Clear
4:55 AM -0.4 °F -12.0 °F -5.8 °F 78% 30.06 in 10.0 mi West 5.8 mph - N/A   Clear
5:15 AM -2.2 °F -14.2 °F -7.6 °F 78% 30.07 in 10.0 mi West 5.8 mph - N/A   Clear
5:35 AM -4.0 °F -14.6 °F -7.6 °F 85% 30.07 in 10.0 mi WSW 4.6 mph - N/A   Clear
5:55 AM -4.0 °F -16.3 °F -7.6 °F 85% 30.07 in 10.0 mi West 5.8 mph - N/A   Clear
6:15 AM -4.0 °F -14.6 °F -7.6 °F 85% 30.07 in 10.0 mi West 4.6 mph - N/A   Clear
6:35 AM -4.0 °F -16.3 °F -7.6 °F 85% 30.07 in 10.0 mi West 5.8 mph - N/A   Clear
6:55 AM -2.2 °F -18.0 °F -5.8 °F 85% 30.07 in 10.0 mi WNW 9.2 mph - N/A   Clear
7:15 AM -0.4 °F -15.7 °F -5.8 °F 78% 30.08 in 10.0 mi WNW 9.2 mph - N/A   Clear
7:35 AM -0.4 °F -14.7 °F -5.8 °F 78% 30.08 in 10.0 mi WNW 8.1 mph - N/A   Clear
7:55 AM 1.4 °F -14.5 °F -5.8 °F 72% 30.08 in 10.0 mi WNW 10.4 mph - N/A   Clear
8:15 AM 1.4 °F -15.3 °F -5.8 °F 72% 30.09 in 10.0 mi West 11.5 mph - N/A   Clear
8:35 AM 3.2 °F -12.2 °F -4.0 °F 72% 30.09 in 10.0 mi WNW 10.4 mph - N/A   Clear
8:55 AM 3.2 °F -13.1 °F -4.0 °F 72% 30.09 in 10.0 mi WNW 11.5 mph - N/A   Clear
9:15 AM 5.0 °F -12.3 °F -4.0 °F 66% 30.10 in 10.0 mi West 13.8 mph - N/A   Clear
9:35 AM 5.0 °F -12.3 °F -4.0 °F 66% 30.10 in 10.0 mi West 13.8 mph 19.6 mph N/A   Clear
9:55 AM 6.8 °F -10.0 °F -2.2 °F 67% 30.10 in 10.0 mi West 13.8 mph 23.0 mph N/A   Clear
10:15 AM 6.8 °F -9.3 °F -2.2 °F 67% 30.10 in 10.0 mi WNW 12.7 mph - N/A   Clear
10:35 AM 8.6 °F -9.5 °F -0.4 °F 67% 30.10 in 10.0 mi West 17.3 mph 20.7 mph N/A   Clear
10:55 AM 8.6 °F -8.3 °F -0.4 °F 67% 30.10 in 10.0 mi WNW 15.0 mph - N/A   Clear
11:15 AM 10.4 °F -5.4 °F -0.4 °F 62% 30.10 in 7.0 mi WNW 13.8 mph - N/A   Clear
11:35 AM 10.4 °F -7.7 °F -0.4 °F 62% 30.10 in 7.0 mi WNW 18.4 mph - N/A   Clear
11:55 AM 10.4 °F -6.6 °F 1.4 °F 67% 30.10 in 10.0 mi West 16.1 mph - N/A   Clear
12:15 PM 12.2 °F -3.7 °F 1.4 °F 62% 30.10 in 10.0 mi West 15.0 mph 20.7 mph N/A   Clear
12:35 PM 12.2 °F -3.7 °F 1.4 °F 62% 30.09 in 10.0 mi West 15.0 mph 21.9 mph N/A   Clear
12:55 PM 12.2 °F -4.8 °F 1.4 °F 62% 30.08 in 10.0 mi West 17.3 mph - N/A   Clear
1:15 PM 12.2 °F -3.1 °F 1.4 °F 62% 30.08 in 10.0 mi West 13.8 mph - N/A   Clear
1:35 PM 12.2 °F -4.8 °F 3.2 °F 67% 30.08 in 7.0 mi West 17.3 mph 26.5 mph N/A   Clear
1:55 PM 14.0 °F -0.8 °F 3.2 °F 62% 30.08 in 10.0 mi West 13.8 mph 23.0 mph N/A   Clear
2:15 PM 14.0 °F -3.4 °F 3.2 °F 62% 30.08 in 10.0 mi West 19.6 mph 25.3 mph N/A   Clear
2:35 PM 14.0 °F -3.9 °F 3.2 °F 62% 30.08 in 10.0 mi West 20.7 mph 27.6 mph N/A   Clear
2:55 PM 14.0 °F -3.9 °F 3.2 °F 62% 30.08 in 10.0 mi WNW 20.7 mph 25.3 mph N/A   Clear
3:15 PM 14.0 °F -3.4 °F 3.2 °F 62% 30.08 in 7.0 mi West 19.6 mph - N/A   Clear
3:35 PM 14.0 °F -2.0 °F 3.2 °F 62% 30.08 in 10.0 mi West 16.1 mph 24.2 mph N/A   Clear
3:55 PM 14.0 °F -2.0 °F 3.2 °F 62% 30.08 in 10.0 mi West 16.1 mph - N/A   Clear
4:15 PM 14.0 °F -3.0 °F 3.2 °F 62% 30.08 in 10.0 mi West 18.4 mph 24.2 mph N/A   Clear
4:35 PM 14.0 °F -3.9 °F 3.2 °F 62% 30.08 in 10.0 mi West 20.7 mph 27.6 mph N/A   Scattered Clouds
4:55 PM 14.0 °F -2.0 °F 3.2 °F 62% 30.09 in 10.0 mi West 16.1 mph 24.2 mph N/A   Clear
5:15 PM 12.2 °F -6.7 °F 3.2 °F 67% 30.09 in 10.0 mi West 21.9 mph 25.3 mph N/A   Clear
5:35 PM 12.2 °F -4.8 °F 3.2 °F 67% 30.09 in 10.0 mi West 17.3 mph 21.9 mph N/A   Clear
5:55 PM 12.2 °F -4.3 °F 1.4 °F 62% 30.09 in 10.0 mi West 16.1 mph - N/A   Clear
6:15 PM 10.4 °F -4.8 °F 1.4 °F 67% 30.10 in 10.0 mi West 12.7 mph - N/A   Clear
6:35 PM 10.4 °F -6.0 °F 1.4 °F 67% 30.10 in 10.0 mi West 15.0 mph - N/A   Clear
6:55 PM 10.4 °F -5.4 °F 1.4 °F 67% 30.10 in 10.0 mi West 13.8 mph - N/A   Clear
7:15 PM 10.4 °F -6.0 °F 1.4 °F 67% 30.11 in 10.0 mi West 15.0 mph - N/A   Clear
7:35 PM 10.4 °F -4.8 °F 1.4 °F 67% 30.10 in 10.0 mi West 12.7 mph - N/A   Clear
7:55 PM 10.4 °F -6.6 °F 1.4 °F 67% 30.10 in 10.0 mi West 16.1 mph - N/A   Clear
8:15 PM 8.6 °F -8.3 °F 1.4 °F 73% 30.11 in 10.0 mi West 15.0 mph - N/A   Clear
8:35 PM 8.6 °F -10.5 °F 1.4 °F 73% 30.11 in 10.0 mi West 19.6 mph 23.0 mph N/A   Clear
8:55 PM 8.6 °F -10.5 °F 1.4 °F 73% 30.12 in 10.0 mi West 19.6 mph 25.3 mph N/A   Clear
9:15 PM 8.6 °F -10.0 °F 1.4 °F 73% 30.12 in 10.0 mi West 18.4 mph - N/A   Clear
9:35 PM 8.6 °F -10.0 °F 1.4 °F 73% 30.12 in 10.0 mi WNW 18.4 mph 26.5 mph N/A   Clear
9:55 PM 8.6 °F -9.5 °F -0.4 °F 67% 30.13 in 10.0 mi WNW 17.3 mph - N/A   Clear
10:15 PM 6.8 °F -10.7 °F -0.4 °F 72% 30.12 in 10.0 mi WNW 15.0 mph - N/A   Clear
10:35 PM 6.8 °F -12.4 °F -0.4 °F 72% 30.13 in 10.0 mi WNW 18.4 mph 24.2 mph N/A   Clear
10:55 PM 6.8 °F -12.4 °F -0.4 °F 72% 30.13 in 10.0 mi WNW 18.4 mph 23.0 mph N/A   Clear
11:15 PM 5.0 °F -13.0 °F -0.4 °F 78% 30.13 in 10.0 mi West 15.0 mph - N/A   Clear
11:35 PM 5.0 °F -13.6 °F -2.2 °F 72% 30.13 in 10.0 mi WNW 16.1 mph - N/A   Clear
11:55 PM 5.0 °F -13.0 °F -2.2 °F 72% 30.13 in 10.0 mi WNW 15.0 mph - N/A   Clear